TimeEDT,TemperatureF,Dew PointF,Humidity,Sea Level PressureIn,VisibilityMPH,Wind Direction,Wind SpeedMPH,Gust SpeedMPH,PrecipitationIn,Events,Conditions,WindDirDegrees,DateUTC
12:58 AM,72.0,64.0,76,30.09,10.0,NNE,6.9,-,N/A,,Clear,30,2013-09-07 04:58:00
1:58 AM,72.0,63.0,73,30.07,10.0,NE,6.9,-,N/A,,Clear,40,2013-09-07 05:58:00
2:58 AM,71.1,62.1,73,30.07,10.0,NE,6.9,-,N/A,,Clear,50,2013-09-07 06:58:00
3:58 AM,70.0,63.0,78,30.06,10.0,NNE,5.8,-,N/A,,Clear,30,2013-09-07 07:58:00
4:58 AM,68.0,63.0,84,30.06,10.0,NNE,5.8,-,N/A,,Clear,20,2013-09-07 08:58:00
5:58 AM,66.0,62.1,87,30.08,10.0,NNE,3.5,-,N/A,,Clear,30,2013-09-07 09:58:00
6:58 AM,66.0,62.1,87,30.09,10.0,NNE,3.5,-,N/A,,Clear,20,2013-09-07 10:58:00
7:58 AM,70.0,63.0,78,30.09,10.0,NNE,4.6,-,N/A,,Clear,20,2013-09-07 11:58:00
8:58 AM,75.0,64.0,69,30.09,10.0,NNE,5.8,-,N/A,,Clear,30,2013-09-07 12:58:00
9:58 AM,77.0,61.0,58,30.09,10.0,NE,6.9,-,N/A,,Clear,40,2013-09-07 13:58:00
10:58 AM,78.1,61.0,56,30.09,10.0,NNE,10.4,-,N/A,,Partly Cloudy,30,2013-09-07 14:58:00
11:58 AM,79.0,62.1,56,30.09,10.0,NE,6.9,-,N/A,,Partly Cloudy,40,2013-09-07 15:58:00
12:58 PM,80.1,62.1,54,30.07,10.0,ENE,8.1,-,N/A,,Partly Cloudy,70,2013-09-07 16:58:00
1:58 PM,80.1,60.1,50,30.06,10.0,NE,5.8,-,N/A,,Clear,50,2013-09-07 17:58:00
2:58 PM,80.1,59.0,48,30.04,10.0,NE,8.1,-,N/A,,Clear,40,2013-09-07 18:58:00
3:58 PM,80.1,57.0,45,30.02,10.0,NE,8.1,-,N/A,,Clear,40,2013-09-07 19:58:00
4:58 PM,79.0,57.9,48,30.01,10.0,NE,6.9,-,N/A,,Clear,50,2013-09-07 20:58:00
5:58 PM,77.0,57.9,52,30.00,10.0,NE,5.8,-,N/A,,Clear,50,2013-09-07 21:58:00
6:58 PM,73.9,59.0,59,30.00,10.0,NE,4.6,-,N/A,,Clear,50,2013-09-07 22:58:00
7:58 PM,71.1,60.1,68,30.01,10.0,ENE,3.5,-,N/A,,Clear,70,2013-09-07 23:58:00
8:58 PM,69.1,61.0,75,30.02,10.0,Calm,Calm,-,N/A,,Clear,0,2013-09-08 00:58:00
9:58 PM,68.0,62.1,81,30.03,10.0,Calm,Calm,-,N/A,,Clear,0,2013-09-08 01:58:00
10:58 PM,66.9,62.1,84,30.01,10.0,NE,3.5,-,N/A,,Clear,50,2013-09-08 02:58:00
11:58 PM,64.9,62.1,90,30.01,10.0,Calm,Calm,-,N/A,,Clear,0,2013-09-08 03:58:00